Location: Ethel Rock
(53.4667°N, 4.5667°W)
Time: 04:09:22
(UTC+00:00)

Cosmos 1536 Rocket - Pass Details

Date: 24 October 2020
Orbit: 604 x 633 km, 82.5° (Epoch: 25 November)

Event Time Altitude Azimuth Distance (km) Brightness Sun altitude
Exits shadow 05:48:43 - 222° (SW) 2,670 6.5 -11.6°
Reaches altitude 10° 05:50:32 10° 232° (SW) 2,016 5.8 -11.3°
Maximum altitude 05:54:27 29° 293° (WNW) 1,167 4.4 -10.7°
Drops below altitude 10° 05:58:24 10° 354° (N) 2,032 6.1 -10.2°
Sets 06:00:54 0° 5° (N) 2,944 7.0 -9.8°
